[[{"header":{"parameterUnit":"m.s-1","parameterCategory":1,"la1":30.2991,"la2":30.254,"lo1":-89.0895,"lo2":-89.0444,"dy":0.0017,"dx":0.0017,"nx":28,"ny":28,"refTime":"2025-06-09T09:00:00:Z","depth":0,"parameterNumber":2,"parameterNumberName":"U-component_of_WINDS"},"data":[0,0,0,0,0,0,0,0,0,0,0,0,0,0,0,0,0,0,0,0,0,0,0,0,0,0,0,0,0,0,0,0,0,0,0,0,0,0,0,0,0,0,0,0,0,0,0,0,0,0,0,0,0,0,0,0,0,0,1.5159,1.5161,0,1.534,1.5342,1.5344,1.5342,1.5339,1.5337,1.5335,1.5528,1.5536,1.5543,0,0,0,0,0,0,0,0,0,0,0,0,0,1.4816,1.4822,1.5158,1.5161,1.5163,1.534,1.5342,1.5345,1.5342,1.5339,1.5336,1.5334,1.5526,1.5535,1.5544,0,0,0,0,0,0,0,0,0,0,0,0,0,1.4978,1.4824,1.5158,1.5183,1.5187,1.5339,1.5343,1.5346,1.5343,1.5339,1.5336,1.5332,1.5523,1.5534,1.5545,1.5687,0,0,1.5579,1.5584,0,0,0,0,0,0,0,0,1.4969,1.4991,1.5177,1.5181,1.5186,1.5314,1.5293,1.546,1.5344,1.5284,1.5335,1.533,1.5461,1.5477,1.5519,1.5696,1.5705,1.558,1.5587,1.5591,1.5595,0,0,0,0,0,0,0,1.4958,1.4983,1.5231,1.518,1.5185,1.5187,1.5206,1.5325,1.5391,1.5289,1.5289,1.531,1.5463,1.5508,1.5524,1.5707,1.558,1.5589,1.5596,1.5601,1.6012,1.6016,0,0,0,0,0,0,1.494,1.4974,1.5225,1.5236,1.5066,1.5196,1.5217,1.5277,1.539,1.5403,1.5313,1.5309,1.5491,1.5511,1.553,1.5705,1.5591,1.5602,1.5608,1.6007,1.6012,1.6017,0,0,0,0,0,0,1.4933,1.4963,1.5218,1.5105,1.5137,1.5206,1.5273,1.5283,1.5328,1.5408,1.542,1.5347,1.5489,1.5515,1.5648,1.5712,1.5607,1.5617,1.6002,1.6009,1.6015,1.6056,0,0,0,0,0,0,1.4923,1.496,1.5013,1.5106,1.5143,1.533,1.5277,1.5289,1.5347,1.5344,1.5443,1.5456,1.5488,1.5631,1.5659,1.5725,1.5626,1.5997,1.6005,1.6013,1.6049,1.6063,1.6074,0,0,0,0,0,1.4911,1.5019,1.5016,1.5046,1.5211,1.5334,1.5355,1.5387,1.5352,1.5407,1.5458,1.5453,1.57,1.5645,1.5676,1.5747,1.5993,1.6003,1.6012,1.6043,1.606,1.6074,0,0,0,0,0,0,1.4935,1.5032,1.5029,1.517,1.5243,1.5333,1.5404,1.5404,1.5491,1.5485,1.5523,1.5546,1.5679,1.5726,1.5663,1.5891,1.5843,1.5859,1.5855,1.5872,1.5884,1.5871,1.5635,0,0,0,0,0,1.4956,1.5045,1.5126,1.5243,1.5279,1.5335,1.539,1.5408,1.5486,1.5518,1.5579,1.5657,1.5752,1.5814,1.5907,1.6055,1.6078,1.6119,1.6132,1.6142,1.6156,1.6239,1.6259,1.6048,1.6048,1.6048,0,0,1.5002,1.5066,1.512,1.5249,1.5308,1.5402,1.5361,1.5462,1.5533,1.5534,1.5663,1.571,1.5801,1.5942,1.6008,1.5986,1.6219,1.6154,1.6161,1.617,1.6251,1.6271,1.6289,1.6055,1.6054,1.6052,0,0,1.5133,1.519,1.5293,1.5352,1.5441,1.5477,1.5502,1.5591,1.5622,1.5751,1.5755,1.584,1.6003,1.6067,1.6121,1.6276,1.6275,1.6305,1.6372,1.6453,1.6469,1.6484,1.6541,1.6561,1.6319,1.6319,1.6319,0,1.518,1.5318,1.5347,1.5448,1.5505,1.5508,1.5614,1.5671,1.5787,1.5827,1.58,1.6004,1.6065,1.6222,1.626,1.6303,1.6334,1.6295,1.6464,1.648,1.6494,1.6549,1.657,1.6322,1.6321,1.6321,1.6321,0,1.5372,1.5468,1.5542,1.565,1.5716,1.5819,1.5865,1.5929,1.5941,1.5981,1.6113,1.6186,1.6293,1.6331,1.6345,1.6491,1.6475,1.6455,1.6408,1.6517,1.6569,1.659,1.6326,1.6325,1.6324,1.6323,0,0,1.5525,1.5646,1.5673,1.5723,1.582,1.5897,1.6001,1.6103,1.6157,1.6236,1.6326,1.6463,1.6446,1.6507,1.6528,1.6599,1.6718,1.6571,1.6574,1.6597,1.6885,1.69,1.6923,1.6717,1.6721,1.6725,1.6878,0,1.5668,1.585,1.5878,1.604,1.613,1.6133,1.6224,1.6295,1.6335,1.642,1.6464,1.6561,1.653,1.6568,1.6637,1.6689,1.6777,1.6678,1.6804,1.6808,1.6783,1.695,1.6967,1.7108,1.6898,1.6902,1.6904,0,1.5859,1.594,1.611,1.6195,1.6234,1.6315,1.6411,1.6491,1.6572,1.6596,1.6664,1.6676,1.6787,1.6732,1.6886,1.6818,1.6872,1.6905,1.6911,1.6926,1.6864,1.6971,1.7153,1.7175,1.6936,1.6934,1.6931,0,1.5955,1.6107,1.6229,1.6271,1.6373,1.643,1.6476,1.6553,1.6612,1.6697,1.6736,1.6834,1.6888,1.6963,1.7003,1.6959,1.7155,1.7103,1.718,1.7179,1.7223,1.722,1.7417,1.7254,1.7253,1.7253,1.7253,0,1.6112,1.6216,1.6273,1.6348,1.6465,1.6498,1.6614,1.6658,1.6727,1.6812,1.6821,1.6902,1.6948,1.7036,1.7067,1.7191,1.7215,1.7239,1.7247,1.7239,1.7237,1.7276,1.7268,1.7259,1.7257,1.7256,1.7255,0,1.624,1.6282,1.6415,1.65,1.6524,1.6607,1.6681,1.6755,1.6793,1.6901,1.6928,1.699,1.7094,1.714,1.7269,1.729,1.7431,1.7431,1.7403,1.7407,1.7481,1.7474,1.7713,1.7747,1.7559,1.756,1.7562,0,1.6338,1.6418,1.6511,1.6568,1.6614,1.6705,1.6766,1.6801,1.6864,1.6962,1.7025,1.7128,1.7212,1.7378,1.7437,1.7535,1.7539,1.7615,1.7554,1.7544,1.7542,1.7537,1.7546,1.7627,1.7629,1.7631,1.7632,0,1.6509,1.6526,1.6611,1.6704,1.6774,1.685,1.6924,1.697,1.7018,1.7088,1.7193,1.7258,1.7388,1.7492,1.7594,1.7643,1.7647,1.765,1.7674,1.7668,1.7649,1.7662,1.7436,1.7645,1.7644,1.7643,1.7642,1.7642,1.6627,1.6698,1.6774,1.6869,1.6928,1.6996,1.707,1.7117,1.7204,1.7311,1.7327,1.744,1.752,1.7657,1.771,1.78,1.7782,1.7815,1.7824,1.7832,1.7837,1.7633,1.7819,1.7818,1.7818,1.7818,1.7817,0,1.6799,1.6848,1.6934,1.7036,1.7111,1.7104,1.7186,1.725,1.7348,1.7421,1.7503,1.7625,1.7725,1.779,1.7891,1.7951,1.7955,1.7977,1.7974,1.7986,1.7847,1.7817,1.7972,1.7972,1.7972,1.7971,1.7971,1.7971,1.6897,1.7018,1.7044,1.7194,1.7243,1.7351,1.7398,1.7463,1.7521,1.7655,1.7737,1.7778,1.7849,1.7955,1.8047,1.8064,1.8102,1.8125,1.8141,1.8011,1.7995,1.798,1.7952,1.8132,1.8133,1.8273,1.8274,1.8275]},{"header":{"parameterUnit":"m.s-1","parameterCategory":1,"la1":30.2991,"la2":30.254,"lo1":-89.0895,"lo2":-89.0444,"dy":0.0017,"dx":0.0017,"nx":28,"ny":28,"refTime":"2025-06-09T09:00:00:Z","depth":0,"parameterNumber":3,"parameterNumberName":"V-component_of_WINDS"},"data":[0,0,0,0,0,0,0,0,0,0,0,0,0,0,0,0,0,0,0,0,0,0,0,0,0,0,0,0,0,0,0,0,0,0,0,0,0,0,0,0,0,0,0,0,0,0,0,0,0,0,0,0,0,0,0,0,0,0,7.6326,7.6327,0,7.6411,7.6412,7.6413,7.6342,7.6339,7.6336,7.6333,7.6413,7.6418,7.6423,0,0,0,0,0,0,0,0,0,0,0,0,0,7.6095,7.6099,7.6326,7.6327,7.6328,7.6411,7.6412,7.6413,7.6342,7.6339,7.6335,7.6332,7.6412,7.6417,7.6423,0,0,0,0,0,0,0,0,0,0,0,0,0,7.6189,7.6101,7.6326,7.6303,7.6302,7.6411,7.6412,7.6414,7.6343,7.6339,7.6334,7.633,7.641,7.6417,7.6424,7.6558,0,0,7.6446,7.645,0,0,0,0,0,0,0,0,7.6184,7.6197,7.6305,7.6305,7.6304,7.6362,7.636,7.6462,7.6344,7.6327,7.6333,7.6328,7.6399,7.6407,7.6432,7.6562,7.6565,7.6447,7.6452,7.6455,7.6457,0,0,0,0,0,0,0,7.6177,7.6193,7.636,7.6307,7.6306,7.6286,7.6294,7.6379,7.6387,7.6328,7.6323,7.6335,7.6398,7.6426,7.6434,7.6566,7.6447,7.6453,7.6458,7.6461,7.6809,7.6813,0,0,0,0,0,0,7.6174,7.6188,7.6357,7.6362,7.6232,7.6294,7.6303,7.6347,7.6386,7.6387,7.6339,7.6331,7.6415,7.6425,7.6436,7.6595,7.6455,7.6461,7.6466,7.6804,7.681,7.6815,0,0,0,0,0,0,7.6169,7.619,7.6353,7.6274,7.6293,7.6303,7.6353,7.6351,7.6379,7.6394,7.6394,7.6366,7.6412,7.6426,7.6529,7.6597,7.6465,7.6471,7.6798,7.6806,7.6812,7.6915,0,0,0,0,0,0,7.6163,7.6189,7.6241,7.6276,7.6298,7.6447,7.6357,7.6356,7.6393,7.6384,7.6419,7.6421,7.641,7.6518,7.6536,7.6605,7.6477,7.6792,7.6801,7.681,7.6905,7.6925,7.6941,0,0,0,0,0,7.6155,7.6265,7.6244,7.6265,7.6365,7.6451,7.6463,7.645,7.6399,7.6451,7.646,7.642,7.6587,7.6529,7.6549,7.6621,7.6788,7.6799,7.6809,7.6897,7.6921,7.6941,0,0,0,0,0,0,7.6236,7.6269,7.6247,7.6372,7.641,7.6439,7.6504,7.6476,7.6527,7.6516,7.6495,7.6504,7.6612,7.6626,7.6562,7.6752,7.6679,7.6694,7.6739,7.6761,7.6779,7.6773,7.6483,0,0,0,0,0,7.6269,7.6339,7.6363,7.6471,7.6492,7.6495,7.6532,7.6519,7.6556,7.6571,7.6587,7.6622,7.6683,7.6723,7.6779,7.6907,7.6913,7.6966,7.6984,7.6999,7.7012,7.7079,7.7103,7.6851,7.6851,7.685,0,0,7.6337,7.6364,7.6409,7.6488,7.6516,7.6586,7.6509,7.6586,7.6638,7.6581,7.668,7.6693,7.6731,7.6847,7.6899,7.6862,7.7083,7.7012,7.7024,7.7029,7.7093,7.7117,7.7138,7.6858,7.6857,7.6856,0,0,7.6496,7.6525,7.6618,7.6647,7.6691,7.6692,7.6715,7.6749,7.6756,7.6855,7.6814,7.6874,7.6978,7.7007,7.7035,7.7206,7.7171,7.7225,7.7318,7.7384,7.7404,7.7422,7.7481,7.7503,7.7238,7.7238,7.7238,0,7.6574,7.6682,7.6668,7.675,7.6785,7.674,7.6833,7.6861,7.692,7.6944,7.6903,7.7034,7.7056,7.7178,7.7219,7.7244,7.7267,7.722,7.7403,7.742,7.7436,7.7493,7.7516,7.7244,7.7244,7.7243,7.7242,0,7.6775,7.685,7.6919,7.698,7.7023,7.711,7.7107,7.7152,7.7135,7.714,7.7241,7.7266,7.7326,7.7354,7.7337,7.7473,7.7449,7.7406,7.7332,7.7467,7.752,7.7542,7.7253,7.7251,7.7249,7.7248,0,0,7.6988,7.7041,7.7066,7.7093,7.7138,7.7194,7.7278,7.7339,7.7378,7.7419,7.7488,7.7577,7.7538,7.757,7.7556,7.7614,7.7747,7.7563,7.7564,7.7596,7.7896,7.7928,7.7954,7.7724,7.7728,7.7731,7.7893,0,7.7149,7.7298,7.7288,7.7427,7.7494,7.7452,7.7525,7.7559,7.7566,7.7622,7.7628,7.7692,7.7636,7.7655,7.7711,7.7719,7.7806,7.7707,7.7785,7.7788,7.7776,7.7982,7.8016,7.8167,7.7913,7.7917,7.792,0,7.7357,7.7409,7.7555,7.759,7.7618,7.7684,7.7739,7.7794,7.7831,7.7831,7.7868,7.7844,7.7926,7.7851,7.7962,7.7894,7.7925,7.7934,7.794,7.7946,7.7862,7.7992,7.8215,7.8238,7.7952,7.795,7.7947,0,7.7497,7.7602,7.7704,7.7728,7.7771,7.7818,7.7837,7.787,7.7908,7.7955,7.7979,7.8034,7.8064,7.8107,7.8097,7.8044,7.8211,7.8135,7.8212,7.8212,7.8248,7.8246,7.8479,7.827,7.8269,7.8269,7.8268,0,7.7677,7.7768,7.7767,7.783,7.7929,7.7916,7.8015,7.8028,7.8058,7.812,7.8086,7.8144,7.8129,7.8186,7.8179,7.8272,7.8286,7.8287,7.8284,7.829,7.829,7.8309,7.8298,7.8275,7.8274,7.8272,7.8271,0,7.785,7.7853,7.7961,7.7994,7.8004,7.8076,7.8102,7.8159,7.8164,7.8243,7.826,7.8266,7.8332,7.8327,7.84,7.8395,7.851,7.8494,7.8498,7.8495,7.8572,7.8565,7.8825,7.8858,7.8628,7.863,7.8632,0,7.7965,7.8034,7.8075,7.8116,7.8139,7.8205,7.8243,7.8232,7.8273,7.8321,7.8372,7.8435,7.8485,7.8591,7.86,7.8656,7.8641,7.8728,7.8649,7.8653,7.8641,7.8637,7.8643,7.8744,7.8746,7.8748,7.875,0,7.8168,7.8167,7.8225,7.8285,7.8333,7.8378,7.842,7.8454,7.8447,7.8494,7.8563,7.8601,7.8677,7.8739,7.8792,7.8809,7.8778,7.8775,7.8796,7.8802,7.8802,7.8802,7.854,7.8769,7.8767,7.8766,7.8765,7.8764,7.8315,7.8375,7.8413,7.8479,7.851,7.855,7.8605,7.8617,7.8675,7.8737,7.8727,7.8803,7.8836,7.8904,7.8926,7.8984,7.8952,7.8982,7.899,7.8997,7.9006,7.8793,7.8993,7.8993,7.8992,7.8992,7.8991,0,7.8516,7.8539,7.86,7.8661,7.8712,7.8682,7.8725,7.877,7.8838,7.8873,7.8924,7.9001,7.9061,7.9076,7.9133,7.9176,7.9163,7.9191,7.9187,7.9192,7.9031,7.9008,7.9201,7.9201,7.92,7.92,7.92,7.92,7.8627,7.8727,7.8729,7.8842,7.8863,7.894,7.8968,7.9003,7.9031,7.912,7.9171,7.9181,7.9207,7.9266,7.9319,7.9321,7.9343,7.9377,7.9374,7.9224,7.9203,7.9183,7.916,7.9382,7.9383,7.9529,7.953,7.9532]}]]